Regional Weather Roundup
Issued by NWS

Home | Current Version | Previous Version | Graphics & Text | Print | Product List | Glossary On
Versions: 1 2 3 4 5 6 7 8 9 10 11 12 13 14 15 16 17 18 19 20 21 22 23 24 25 26 27 28 29 30 31 32 33 34 35 36 37 38 39 40 41 42 43 44 45 46 47 48 49 50
000
ASUS43 KMKX 050800
RWRWI

WISCONSIN REGIONAL WEATHER ROUNDUP
NATIONAL WEATHER SERVICE MILWAUKEE/SULLIVAN WI
300 AM CDT WED AUG 05 2015

NOTE: "FAIR" INDICATES FEW OR NO CLOUDS BELOW 12,000 FEET WITH NO
SIGNIFICANT WEATHER AND/OR OBSTRUCTIONS TO VISIBILITY.

WIZ001-002-006>008-014>016-023>028-050900-
NORTHWEST WISCONSIN

CITY           SKY/WX    TMP DP  RH WIND       PRES   REMARKS
SUPERIOR ARPT  CLEAR     49  47  96 CALM      30.08S
ASHLAND        FOG       47  47 100 W3        30.09S VSB 3/4
HAYWARD        CLEAR     50  47  89 CALM      30.08S
SIREN          CLEAR     54  53  94 CALM      30.07R
CUMBERLAND     CLEAR     54  52  94 E3        30.07S
RICE LAKE      CLEAR     52  51  94 CALM      30.08R FOG
CHETEK         CLEAR     58  54  85 CALM      30.07R
LADYSMITH      FAIR      55  51  86 CALM      30.08S
EAU CLAIRE     NOT AVBL
MENOMONIE      CLEAR     58  55  89 N3        30.05S
NEW RICHMOND   CLEAR     58  55  90 CALM      30.05R
OSCEOLA        CLEAR     60  59  97 E3        30.07R
$$

WIZ003>005-009-010-017-018-050900-
NORTH CENTRAL WISCONSIN

CITY           SKY/WX    TMP DP  RH WIND       PRES   REMARKS
MANITOWISH WTR FOG       43  43 100 CALM      30.09S VSB 1/4
ARBOR VITAE    CLEAR     49  48  94 CALM      30.08S
WOODRUFF       CLEAR     49  48  94 CALM      30.08S
RHINELANDER    CLEAR     49  46  90 CALM      30.09R
EAGLE RIVER      N/A     44  44 100 CALM      30.09R FOG
LAND O LAKES   CLEAR     41  41  99 CALM      30.10R
PHILLIPS       CLEAR     51  51  99 CALM      30.08R
TOMAHAWK       CLOUDY    56  51  85 CALM      30.08R
MEDFORD        CLEAR     52  50  95 E3        30.07S
MERRILL        NOT AVBL
$$

WIZ029-030-035-036-043>047-050900-
CENTRAL WISCONSIN

CITY           SKY/WX    TMP DP  RH WIND       PRES   REMARKS
WAUSAU         CLEAR     57  52  83 CALM      30.05S
MOSINEE        CLEAR     55  52  88 NE5       30.07S
MARSHFIELD     CLEAR     58  51  78 NE6       30.05S
STEVENS POINT  PTCLDY    52  51  94 CALM      30.06R
WAUPACA        CLEAR     56  55  96 N3        30.05R
WAUTOMA        NOT AVBL
WISC RAPIDS    PTCLDY    57  53  86 CALM      30.06R
CAMP DOUGLAS   NOT AVBL
$$

WIZ011>013-019>022-031-037>040-048>050-050900-
NORTHEAST WISCONSIN

CITY           SKY/WX    TMP DP  RH WIND       PRES   REMARKS
ANTIGO         CLOUDY    55  53  93 CALM      30.08S
SHAWANO        PTCLDY    63  58  84 NE6       30.06R
OCONTO         PTCLDY    56  56 100 N5        30.05R
STURGEON BAY   CLEAR     59  52  77 E3        30.08R
GREEN BAY      CLEAR     56  54  93 CALM      30.05R
MANITOWOC      NOT AVBL
APPLETON       CLEAR     57  55  94 CALM      30.05R
CLINTONVILLE   CLEAR     55  55 100 CALM      30.05R
OSHKOSH        CLEAR     55  53  93 CALM      30.03S
$$

WIZ032>034-041-042-053>061-050900-
SOUTHWEST WISCONSIN

CITY           SKY/WX    TMP DP  RH WIND       PRES   REMARKS
LA CROSSE      CLEAR     60  57  89 SE5       30.04R
SPARTA         PTCLDY    50  49  95 CALM      30.05S
VIROQUA        CLEAR     56  56  99 CALM      30.06R
BOSCOBEL       PTCLDY    53  52  96 CALM      30.05S
PRAIRIE DU CHI PTCLDY    57  55  92 CALM      30.05R
PLATTEVILLE    CLEAR     59  54  85 CALM      30.05R
$$

WIZ056-057-062-063-064-067-068-050900-
SOUTH CENTRAL WISCONSIN

CITY           SKY/WX    TMP DP  RH WIND       PRES   REMARKS
REEDSBURG      CLEAR     55  54  96 CALM      30.05R
BARABOO/DELLS  CLEAR     56  53  87 CALM      30.05R
LONE ROCK      CLEAR     54  52  94 CALM      30.06R FOG
MINERAL POINT  PTCLDY    61  55  82 CALM      30.06S
MADISON        PTCLDY    57  54  89 CALM      30.04S
MIDDLETON      PTCLDY    56  55  95 CALM      30.05S
WATERTOWN      CLEAR     56  56 100 CALM      30.04R
MONROE         PTCLDY    63  54  72 NW6       30.05S
JANESVILLE     PTCLDY    59  55  88 CALM      30.04S
$$

WIZ051-052-058>065-066-070>072-050900-
SOUTHEAST WISCONSIN

CITY           SKY/WX    TMP DP  RH WIND       PRES   REMARKS
MILWAUKEE      MOCLDY    63  56  78 CALM      30.03S
WAUKESHA       PTCLDY    55  52  88 CALM      30.05S
MILWAUKEE/TIMM CLEAR     59  52  77 CALM      30.04S
RACINE         MOCLDY    63  56  78 W6        30.04S
BURLINGTON     CLEAR     52  51  97 CALM      30.04R
KENOSHA        CLEAR     57  55  93 W3        30.04R
FOND DU LAC    CLEAR     57  55  93 CALM      30.04R
SHEBOYGAN      CLEAR     56  54  93 N5        30.03S
WEST BEND      CLEAR     55  54  94 CALM      30.04R
JUNEAU         MOCLDY    57  55  92 CALM      30.05R
$$

LSZ147-162-050900-
LAKE SUPERIOR

STATION/POSITION TIME  TEMP    WIND        PRES    WAVE
                       AIR SEA DIR/SP/G            HT/PER
                 (UTC) (F)     (DEG/KT/KT) (MB)    (FT/S)
W MID LAKE BUOY  0650   58 57  290/  6/  6 1018.3S   0
DEVILS ISLAND    0700   57     310/  5/  6 1019.0R
PORT WING        0700   54     170/  2/  4 1018.6
SAXON HARBOR     0740   51     210/  3/  5 1017.9F
$$

LMZ867-665-643>646-050900-
LAKE MICHIGAN

STATION/POSITION TIME  TEMP    WIND        PRES    WAVE
                       AIR SEA DIR/SP/G            HT/PER
                 (UTC) (F)     (DEG/KT/KT) (MB)    (FT/S)
CHAMBERS ISLAND  0700   64      10/  6/  8 1017.3F
N MID LAKE BUOY  0650   61 68  310/  6/ 10 1017.6S   1/ 3
NORTHPORT PIER   0700   63     320/  6/ 10 1017.6S
SISTER BAY       0718   58     130/  5/  6   N/A
ALGOMA LAKESHORE 0713           50/  9/ 11   N/A
KEWAUNEE LAKESHO 0700   61      20/  5/  8 1016.4F
SHEBOYGAN LAKESH 0700   63     330/  6/  6 1016.8F
PORT WASHINGTON  0700   64     300/  4/  7 1017.3S
ATWATER BUOY     0700   64 60   CALM  /  2 1017.9F
MILWAUKEE LAKESH 0700   68     280/  4/  4   N/A
KENOSHA   LAKESH 0700   66     260/  1/  3 1016.6S
$$

TC  - TEMPERATURE IN CELSIUS
VSB - VISIBILITY IN STATUTE MILES
WCI - WIND CHILL INDEX
HX  - HEAT INDEX




USA.gov is the U.S. government's official web portal to all federal, state and local government web resources and services.